Flag for Ethiopia Weather past 2 weeks in Adama, Ethiopia

Now
61 °F

Passing clouds.


Feels Like: 61 °F
Forecast: 51 / 82 °F
Wind: 5 mph from Northwest

Location: Addis Ababa Airport

Current Time: Sep 21, 2014 at 9:29:15 PM

Latest Report: Sep 21, 2014 at 9:00 PM


Visibility: N/A

Pressure: 30.33 "Hg

Humidity: 72%

Dew point: 52 °F

Location of AdamaLocation

Historic Weather in Adama — Graph

°F

Adama temperature yesterday

Maximum temperature yesterday: 72 °F (at 1:00 PM)
Minimum temperature yesterday: 55 °F (at 3:00 AM)
Average temperature yesterday: 62 °F

Past Weeks' High & Low Weather Summary

 TemperatureHumidityPressure
High72 °F (Sep 14, 1:00 PM)100% (Sep 8, 1:00 PM)30.45 "Hg (Sep 8, 1:00 PM)
Low54 °F (Sep 12, 5:00 AM)47% (Sep 14, 1:00 PM)30.27 "Hg (Sep 10, 4:00 PM)
Average61 °F77%30.34 "Hg
* Reported Sep 6 8:00 PM — Sep 21 8:00 PM, Adama, Weather by CustomWeather, © 2014

Note: Actual official high and low records may vary slightly from our data, if they occured in-between our weather recording intervals... More about our weather records

Advertising

Adama weather history for previous 24 hours

 ConditionsComfort  
Time TempWeatherWind HumidityBarometerVisibility
8:00 PM
Sep 21
61 °FPartly cloudy.5 mph83%N/AN/A
7:00 PM61 °FPartly cloudy.5 mph83%N/AN/A
6:00 PM61 °FPassing clouds.5 mph83%N/AN/A
5:00 PM61 °FPassing clouds.5 mph83%N/AN/A
4:00 PM61 °FRain. Passing clouds.5 mph83%N/A4 mi
3:00 PM63 °FRain. Passing clouds.9 mph88%N/A4 mi
2:00 PM72 °FRain. Partly sunny.12 mph50%30.27 "Hg6 mi
1:00 PM72 °FMild.14 mph50%30.30 "HgN/A
12:00 PM70 °FScattered clouds.14 mph57%30.33 "HgN/A
11:00 AM70 °FScattered clouds.9 mph57%30.36 "HgN/A
10:00 AM66 °FPassing clouds.5 mph64%30.39 "HgN/A
8:00 AM61 °FPassing clouds.5 mph77%30.36 "HgN/A
7:00 AM55 °FScattered clouds.5 mph72%30.36 "HgN/A
6:00 AM55 °FPassing clouds.5 mph72%30.33 "HgN/A
5:00 AM55 °FPassing clouds.2 mph72%30.30 "HgN/A
3:00 AM57 °FPassing clouds.2 mph82%30.30 "HgN/A
2:00 AM59 °FPassing clouds.2 mph72%30.30 "HgN/A
1:00 AM59 °FPartly cloudy.5 mph72%30.33 "HgN/A
12:00 AM61 °FPartly cloudy.5 mph83%30.36 "HgN/A
11:00 PM
Sep 20
61 °FPassing clouds.2 mph77%30.39 "HgN/A
10:00 PM61 °FPartly cloudy.2 mph83%30.36 "HgN/A
9:00 PM61 °FPartly cloudy.5 mph83%30.36 "HgN/A
Weather by CustomWeather, © 2014

See weather overviewHow to use our weather pages